Location: The Jewett Observatory
(46.7288°N, 117.1525°W)
Time: 18:54:41
(UTC-08:00)

Meteor 1-28 Rocket - Visible Passes

Search period start: 05 December 2016 00:00
Search period end: 15 December 2016 00:00
Orbit: 508 x 525 km, 97.2° (Epoch: 04 December)

Date Brightness Start Highest point End Pass type
(mag) Time Alt. Az. Time Alt. Az. Time Alt. Az.
05 Dec 6.0 04:14:57 10° ESE 04:17:24 17° ENE 04:19:05 13° NE visible
05 Dec 3.5 05:47:32 10° S 05:51:10 44° W 05:54:06 15° NNW visible
05 Dec 5.1 17:20:30 15° ESE 17:20:30 15° ESE 17:21:56 10° SE visible
05 Dec 5.2 18:55:31 26° SW 18:55:31 26° SW 18:57:28 10° SW visible
06 Dec 6.3 04:01:24 10° E 04:02:56 12° ENE 04:04:11 11° NE visible
06 Dec 3.1 05:32:44 10° S 05:36:30 66° W 05:39:12 18° NNW visible
06 Dec 5.4 17:05:42 10° ESE 17:05:42 10° ESE 17:05:52 10° ESE visible
06 Dec 4.6 18:40:43 35° SW 18:40:43 35° SW 18:43:02 10° SSW visible
07 Dec 3.2 05:18:04 10° SSE 05:21:52 83° ENE 05:24:18 21° N visible
07 Dec 4.1 18:25:55 41° S 18:25:55 41° S 18:28:27 10° SSW visible
08 Dec 3.8 05:03:32 10° SSE 05:07:15 55° ENE 05:09:24 23° N visible
08 Dec 5.1 06:40:01 10° WSW 06:41:43 13° W 06:43:25 10° WNW visible
08 Dec 3.9 18:11:07 40° SSE 18:11:07 40° SSE 18:13:45 10° S visible
09 Dec 4.6 04:49:09 10° SE 04:52:41 38° ENE 04:54:31 23° NNE visible
09 Dec 4.8 06:24:17 10° SW 06:26:56 18° W 06:29:31 10° NW visible
09 Dec 4.1 17:56:18 32° SE 17:56:18 32° SE 17:58:53 10° SSE visible
09 Dec 6.4 19:31:18 12° WSW 19:31:18 12° WSW 19:31:50 10° WSW visible
10 Dec 5.2 04:34:54 10° SE 04:38:08 27° ENE 04:39:37 21° NNE visible
10 Dec 4.3 06:08:59 10° SSW 06:12:11 25° W 06:14:38 14° NW visible
10 Dec 4.5 17:41:29 24° ESE 17:41:29 24° ESE 17:43:51 10° SSE visible
10 Dec 5.9 19:16:29 18° WSW 19:16:29 18° WSW 19:17:48 10° SW visible
11 Dec 5.7 04:20:50 10° ESE 04:23:36 19° ENE 04:24:44 17° NE visible
11 Dec 3.8 05:53:56 10° SSW 05:57:28 36° W 05:59:45 19° NW visible
11 Dec 4.8 17:26:39 18° ESE 17:26:39 18° ESE 17:28:36 10° SE visible
11 Dec 5.4 19:01:40 25° WSW 19:01:40 25° WSW 19:03:34 10° SW visible
12 Dec 6.1 04:07:02 10° E 04:09:07 14° ENE 04:09:51 14° NE visible
12 Dec 3.3 05:39:03 10° S 05:42:47 54° W 05:44:51 24° NNW visible
12 Dec 5.2 17:11:49 13° ESE 17:11:49 13° ESE 17:12:57 10° ESE visible
12 Dec 4.7 18:46:50 34° SW 18:46:50 34° SW 18:49:12 10° SSW visible
13 Dec 6.5 03:54:06 10° ENE 03:54:39 10° ENE 03:54:58 10° NE visible
13 Dec 3.1 05:24:19 10° S 05:28:07 82° WSW 05:29:59 29° NNW visible
13 Dec 4.1 18:32:00 44° SSW 18:32:00 44° SSW 18:34:40 10° SSW visible
14 Dec 3.5 05:09:42 10° SSE 05:13:29 68° ENE 05:15:06 32° N visible
14 Dec 5.3 06:47:17 10° W 06:48:02 10° W 06:48:47 10° WNW visible
14 Dec 3.7 18:17:10 48° SSE 18:17:10 48° SSE 18:20:01 10° S visible
